Total_Precipitation_Accumulation
0.05 0.05 0.06 0.06 0.04 0.02 0.01 0.00 0.03 0.11 0.20 0.27 0.31 0.44 0.54 0.56 0.61 0.73 0.67 0.54 0.53 0.66 0.66 0.62 0.59 0.52 0.41 0.38 0.35 0.33 0.37 0.22 0.06 0.06 0.06 0.02 0.01 0.00 0.00 0.00 0.00 0.00 0.00
0.04 0.03 0.03 0.05 0.04 0.02 0.01 0.01 0.03 0.09 0.14 0.22 0.34 0.44 0.53 0.50 0.53 0.65 0.72 0.69 0.62 0.71 0.75 0.81 0.78 0.74 0.70 0.65 0.55 0.52 0.60 0.44 0.19 0.18 0.27 0.15 0.05 0.02 0.01 0.00 0.00 0.00 0.00
0.02 0.01 0.02 0.02 0.04 0.04 0.03 0.04 0.07 0.16 0.29 0.40 0.50 0.47 0.43 0.40 0.45 0.51 0.62 0.70 0.75 0.82 0.84 0.85 0.82 0.77 0.69 0.69 0.72 0.72 0.86 0.70 0.42 0.29 0.31 0.28 0.22 0.07 0.01 0.00 0.00 0.00 0.00
0.01 0.01 0.01 0.02 0.04 0.06 0.08 0.13 0.24 0.40 0.57 0.73 0.76 0.62 0.56 0.56 0.52 0.51 0.50 0.49 0.53 0.64 0.74 0.71 0.71 0.67 0.60 0.67 0.75 0.79 0.95 0.97 0.68 0.46 0.34 0.23 0.18 0.12 0.08 0.03 0.00 0.00 0.00
0.03 0.03 0.04 0.05 0.08 0.14 0.21 0.34 0.54 0.80 0.97 1.03 0.97 0.82 0.66 0.54 0.43 0.35 0.34 0.33 0.35 0.34 0.37 0.44 0.53 0.59 0.60 0.65 0.77 0.81 0.98 0.98 0.87 0.62 0.50 0.44 0.32 0.20 0.13 0.11 0.04 0.01 0.00
0.04 0.07 0.10 0.12 0.17 0.24 0.38 0.54 0.71 0.93 1.00 0.98 0.92 0.82 0.71 0.55 0.41 0.33 0.29 0.26 0.25 0.21 0.20 0.24 0.36 0.53 0.66 0.71 0.75 0.81 0.97 1.00 0.97 0.78 0.59 0.54 0.49 0.42 0.30 0.19 0.12 0.05 0.01
0.10 0.15 0.22 0.31 0.36 0.42 0.49 0.59 0.68 0.81 0.84 0.77 0.74 0.71 0.62 0.49 0.38 0.29 0.21 0.16 0.13 0.14 0.17 0.22 0.34 0.50 0.63 0.70 0.71 0.76 0.81 0.85 0.95 0.87 0.73 0.59 0.49 0.45 0.39 0.34 0.20 0.12 0.05
0.25 0.36 0.46 0.50 0.52 0.53 0.51 0.53 0.58 0.63 0.60 0.55 0.52 0.53 0.49 0.41 0.31 0.21 0.15 0.12 0.11 0.10 0.10 0.17 0.29 0.48 0.68 0.73 0.68 0.64 0.65 0.67 0.80 0.78 0.73 0.72 0.55 0.46 0.42 0.40 0.38 0.31 0.22
0.43 0.60 0.73 0.78 0.76 0.66 0.55 0.47 0.45 0.46 0.42 0.39 0.36 0.36 0.33 0.28 0.22 0.14 0.12 0.12 0.09 0.06 0.06 0.10 0.18 0.30 0.50 0.67 0.69 0.59 0.57 0.54 0.63 0.66 0.66 0.73 0.73 0.58 0.46 0.45 0.44 0.43 0.37
0.74 0.93 1.12 1.16 1.05 0.80 0.64 0.50 0.42 0.38 0.35 0.32 0.29 0.28 0.26 0.22 0.18 0.13 0.11 0.08 0.06 0.05 0.05 0.06 0.09 0.18 0.32 0.49 0.62 0.62 0.58 0.49 0.48 0.59 0.70 0.78 0.82 0.81 0.62 0.51 0.47 0.40 0.38
0.95 1.07 1.14 1.12 0.91 0.70 0.55 0.45 0.37 0.33 0.33 0.33 0.31 0.28 0.24 0.20 0.16 0.13 0.09 0.05 0.04 0.05 0.05 0.07 0.06 0.12 0.20 0.34 0.55 0.66 0.64 0.54 0.50 0.52 0.61 0.73 0.80 0.95 0.86 0.71 0.59 0.51 0.46
0.62 0.66 0.63 0.62 0.59 0.54 0.43 0.36 0.33 0.34 0.35 0.36 0.32 0.25 0.20 0.15 0.12 0.10 0.07 0.04 0.03 0.03 0.04 0.07 0.07 0.10 0.14 0.20 0.32 0.49 0.59 0.59 0.52 0.49 0.53 0.66 0.75 0.90 0.98 0.93 0.81 0.72 0.63
0.43 0.42 0.42 0.40 0.39 0.39 0.32 0.31 0.32 0.37 0.41 0.41 0.36 0.27 0.20 0.15 0.11 0.08 0.05 0.03 0.03 0.04 0.05 0.08 0.11 0.14 0.16 0.14 0.17 0.23 0.32 0.42 0.45 0.44 0.42 0.44 0.53 0.72 0.88 0.94 0.92 0.91 0.79
0.36 0.33 0.32 0.33 0.35 0.30 0.27 0.27 0.29 0.37 0.49 0.58 0.53 0.44 0.30 0.19 0.15 0.11 0.07 0.05 0.04 0.05 0.06 0.09 0.16 0.22 0.22 0.19 0.16 0.17 0.17 0.17 0.20 0.26 0.32 0.33 0.37 0.47 0.57 0.68 0.82 1.01 0.97
0.28 0.27 0.26 0.24 0.21 0.19 0.19 0.21 0.27 0.38 0.55 0.71 0.75 0.63 0.44 0.30 0.23 0.19 0.14 0.10 0.09 0.09 0.10 0.11 0.13 0.18 0.20 0.18 0.21 0.18 0.12 0.10 0.08 0.07 0.10 0.14 0.23 0.32 0.36 0.44 0.62 0.86 0.97
0.24 0.22 0.20 0.18 0.17 0.14 0.13 0.14 0.21 0.35 0.59 0.83 0.81 0.59 0.43 0.33 0.30 0.29 0.27 0.20 0.15 0.15 0.16 0.16 0.16 0.19 0.18 0.20 0.22 0.16 0.11 0.11 0.10 0.07 0.04 0.03 0.07 0.15 0.20 0.26 0.35 0.51 0.67
0.18 0.19 0.19 0.19 0.18 0.18 0.17 0.18 0.24 0.36 0.51 0.61 0.57 0.47 0.36 0.33 0.37 0.39 0.32 0.28 0.25 0.22 0.24 0.24 0.21 0.22 0.27 0.22 0.14 0.15 0.13 0.15 0.15 0.12 0.11 0.08 0.03 0.04 0.07 0.14 0.20 0.22 0.28
0.11 0.11 0.12 0.13 0.15 0.16 0.19 0.22 0.26 0.33 0.37 0.39 0.39 0.33 0.29 0.30 0.32 0.34 0.32 0.38 0.41 0.37 0.36 0.36 0.35 0.32 0.34 0.26 0.15 0.16 0.16 0.19 0.19 0.17 0.14 0.13 0.08 0.05 0.06 0.08 0.10 0.11 0.16
0.04 0.03 0.03 0.03 0.05 0.05 0.06 0.08 0.10 0.12 0.12 0.12 0.12 0.11 0.11 0.13 0.14 0.15 0.21 0.32 0.39 0.40 0.42 0.44 0.43 0.37 0.33 0.28 0.18 0.16 0.17 0.19 0.21 0.17 0.12 0.11 0.09 0.10 0.11 0.13 0.21 0.24 0.26
0.01 0.00 0.00 0.00 0.00 0.00 0.00 0.00 0.00 0.01 0.01 0.01 0.01 0.01 0.01 0.02 0.03 0.05 0.08 0.15 0.18 0.23 0.30 0.32 0.35 0.38 0.36 0.39 0.23 0.19 0.20 0.21 0.23 0.19 0.17 0.20 0.17 0.16 0.15 0.15 0.23 0.22 0.23
0.00 0.00 0.00 0.00 0.00 0.00 0.00 0.00 0.00 0.00 0.00 0.00 0.00 0.00 0.00 0.00 0.00 0.01 0.03 0.05 0.07 0.11 0.15 0.19 0.25 0.31 0.37 0.43 0.36 0.32 0.31 0.28 0.30 0.28 0.23 0.21 0.26 0.17 0.12 0.11 0.12 0.15 0.16
0.00 0.00 0.00 0.00 0.00 0.00 0.00 0.00 0.00 0.00 0.00 0.00 0.00 0.00 0.00 0.00 0.00 0.01 0.01 0.02 0.02 0.05 0.08 0.09 0.13 0.19 0.24 0.30 0.33 0.29 0.29 0.30 0.32 0.34 0.27 0.26 0.29 0.16 0.10 0.07 0.09 0.12 0.12
0.00 0.00 0.00 0.00 0.00 0.00 0.00 0.00 0.00 0.00 0.00 0.00 0.00 0.00 0.00 0.00 0.01 0.01 0.01 0.02 0.02 0.04 0.05 0.08 0.13 0.18 0.24 0.25 0.19 0.16 0.17 0.19 0.27 0.29 0.30 0.30 0.23 0.14 0.09 0.08 0.10 0.10 0.11
0.00 0.00 0.00 0.00 0.00 0.00 0.00 0.00 0.00 0.00 0.00 0.00 0.00 0.00 0.00 0.01 0.01 0.02 0.02 0.03 0.03 0.05 0.08 0.13 0.17 0.21 0.23 0.24 0.21 0.20 0.19 0.17 0.19 0.19 0.18 0.19 0.14 0.12 0.11 0.09 0.08 0.08 0.12
0.00 0.00 0.00 0.00 0.00 0.00 0.00 0.00 0.00 0.00 0.00 0.00 0.00 0.00 0.00 0.01 0.01 0.01 0.01 0.02 0.02 0.04 0.10 0.16 0.20 0.21 0.20 0.14 0.13 0.21 0.30 0.34 0.39 0.40 0.31 0.27 0.22 0.18 0.14 0.12 0.11 0.12 0.15
0.00 0.00 0.00 0.00 0.00 0.00 0.00 0.00 0.00 0.00 0.00 0.00 0.00 0.00 0.00 0.00 0.00 0.00 0.00 0.01 0.02 0.05 0.06 0.06 0.08 0.10 0.09 0.08 0.10 0.15 0.24 0.31 0.38 0.49 0.53 0.51 0.48 0.44 0.36 0.25 0.18 0.13 0.13